GLO9463 SBCF-SBGL

Flight info

Callsign GLO9463
Flight time 0h 39m
Altitude 28000
Route KUBE3A MAVGU UTBO2A
Aircraft B38M/M-DFGHIJ4J7KLORWXY/LB1

Departure

Time 2026-05-06 18:52
Airport Tancredo Neves International Airport (SBCF)

Arrival

Time 2026-05-06 19:31
Airport Rio Galeão – Tom Jobim International Airport (SBGL)
Time Latitude Longitude Altitude Speed Heading
2026-05-06 18:40 -19.63147 -43.96740 2838 ft 0 kts 229°
2026-05-06 18:43 -19.63135 -43.96726 2839 ft 4 kts 231°
2026-05-06 18:43 -19.63126 -43.96704 2842 ft 4 kts 284°
2026-05-06 18:43 -19.63140 -43.96683 2843 ft 3 kts 319°
2026-05-06 18:43 -19.63146 -43.96678 2844 ft 0 kts 319°
2026-05-06 18:46 -19.63131 -43.96692 2841 ft 5 kts 319°
2026-05-06 18:47 -19.63092 -43.96727 2840 ft 9 kts 319°
2026-05-06 18:47 -19.63040 -43.96774 2838 ft 10 kts 319°
2026-05-06 18:47 -19.62991 -43.96819 2843 ft 9 kts 319°
2026-05-06 18:47 -19.62944 -43.96862 2838 ft 9 kts 320°
2026-05-06 18:48 -19.62892 -43.96909 2838 ft 11 kts 319°
2026-05-06 18:48 -19.62833 -43.96964 2841 ft 12 kts 319°
2026-05-06 18:48 -19.62787 -43.97030 2841 ft 10 kts 269°
2026-05-06 18:48 -19.62813 -43.97072 2838 ft 8 kts 230°
2026-05-06 18:49 -19.62852 -43.97119 2839 ft 9 kts 229°
2026-05-06 18:49 -19.62886 -43.97161 2839 ft 7 kts 229°
2026-05-06 18:49 -19.62899 -43.97177 2840 ft 0 kts 228°
2026-05-06 18:49 -19.62900 -43.97178 2840 ft 0 kts 228°
2026-05-06 18:50 -19.62914 -43.97195 2839 ft 7 kts 228°
2026-05-06 18:51 -19.62959 -43.97243 2839 ft 7 kts 205°
2026-05-06 18:51 -19.62979 -43.97237 2839 ft 3 kts 150°
2026-05-06 18:51 -19.63038 -43.97184 2840 ft 36 kts 139°
2026-05-06 18:51 -19.63408 -43.96842 2839 ft 103 kts 139°
2026-05-06 18:52 -19.64094 -43.96209 2838 ft 156 kts 138°
2026-05-06 18:52 -19.65006 -43.95367 3109 ft 179 kts 138°
2026-05-06 18:52 -19.65911 -43.94524 3895 ft 171 kts 137°
2026-05-06 18:52 -19.66814 -43.93686 4606 ft 175 kts 136°
2026-05-06 18:53 -19.67781 -43.92796 5015 ft 195 kts 136°
2026-05-06 18:53 -19.68863 -43.91795 5217 ft 220 kts 135°
2026-05-06 18:53 -19.70086 -43.90662 5538 ft 245 kts 136°
2026-05-06 18:53 -19.71427 -43.89421 6014 ft 265 kts 136°
2026-05-06 18:54 -19.72361 -43.88556 6410 ft 272 kts 136°
2026-05-06 18:54 -19.73789 -43.87236 7223 ft 274 kts 136°
2026-05-06 18:54 -19.75711 -43.85454 8237 ft 280 kts 136°
2026-05-06 18:54 -19.77194 -43.84081 9021 ft 285 kts 137°
2026-05-06 18:55 -19.78209 -43.83140 9539 ft 288 kts 137°
2026-05-06 18:55 -19.80241 -43.81256 10412 ft 301 kts 137°
2026-05-06 18:55 -19.81368 -43.80349 10706 ft 313 kts 146°
2026-05-06 18:55 -19.83261 -43.79099 11234 ft 326 kts 146°
2026-05-06 18:56 -19.85183 -43.77805 11987 ft 328 kts 146°
2026-05-06 18:56 -19.87121 -43.76483 12712 ft 334 kts 145°
2026-05-06 18:56 -19.89086 -43.75130 13473 ft 339 kts 145°
2026-05-06 18:56 -19.91124 -43.73833 14235 ft 344 kts 156°
2026-05-06 18:57 -19.93453 -43.73254 15029 ft 346 kts 178°
2026-05-06 18:57 -19.95843 -43.73593 15768 ft 350 kts 198°
2026-05-06 18:57 -19.98112 -43.74548 16533 ft 352 kts 201°
2026-05-06 18:57 -20.00391 -43.75523 17273 ft 354 kts 201°
2026-05-06 18:58 -20.02679 -43.76516 17987 ft 357 kts 201°
2026-05-06 18:58 -20.04971 -43.77520 18679 ft 358 kts 202°
2026-05-06 18:58 -20.07359 -43.78265 19276 ft 358 kts 187°
2026-05-06 18:58 -20.09826 -43.78672 19878 ft 361 kts 189°
2026-05-06 18:59 -20.12289 -43.79106 20445 ft 364 kts 189°
2026-05-06 18:59 -20.14816 -43.79544 21002 ft 367 kts 189°
2026-05-06 18:59 -20.17346 -43.79981 21538 ft 372 kts 189°
2026-05-06 18:59 -20.19921 -43.80424 22059 ft 375 kts 189°
2026-05-06 19:00 -20.22493 -43.80868 22697 ft 376 kts 189°
2026-05-06 19:00 -20.25099 -43.81317 23213 ft 380 kts 189°
2026-05-06 19:00 -20.27718 -43.81768 23795 ft 382 kts 189°
2026-05-06 19:00 -20.30354 -43.82223 24198 ft 387 kts 189°
2026-05-06 19:01 -20.33020 -43.82683 24682 ft 388 kts 189°
2026-05-06 19:01 -20.35705 -43.83146 25101 ft 392 kts 189°
2026-05-06 19:01 -20.38400 -43.83611 25568 ft 394 kts 189°
2026-05-06 19:01 -20.41117 -43.84080 26033 ft 396 kts 189°
2026-05-06 19:02 -20.43836 -43.84550 26490 ft 398 kts 189°
2026-05-06 19:02 -20.46581 -43.85024 26933 ft 400 kts 189°
2026-05-06 19:02 -20.49339 -43.85501 27402 ft 401 kts 189°
2026-05-06 19:02 -20.52094 -43.85978 27939 ft 401 kts 189°
2026-05-06 19:03 -20.54852 -43.86454 28135 ft 399 kts 189°
2026-05-06 19:03 -20.60133 -43.88078 28138 ft 395 kts 197°
2026-05-06 19:04 -20.65367 -43.89745 28151 ft 395 kts 197°
2026-05-06 19:04 -20.70640 -43.91393 28155 ft 395 kts 196°
2026-05-06 19:05 -20.75914 -43.93036 28155 ft 395 kts 196°
2026-05-06 19:05 -20.81199 -43.94684 28160 ft 395 kts 197°
2026-05-06 19:06 -20.86471 -43.96330 28155 ft 395 kts 197°
2026-05-06 19:06 -20.91753 -43.97979 28157 ft 395 kts 197°
2026-05-06 19:07 -20.97033 -43.99641 28155 ft 395 kts 197°
2026-05-06 19:07 -21.02270 -44.01291 28163 ft 395 kts 197°
2026-05-06 19:08 -21.07541 -44.02952 28145 ft 395 kts 197°
2026-05-06 19:08 -21.12783 -44.04606 28190 ft 392 kts 197°
2026-05-06 19:09 -21.18009 -44.06257 28198 ft 392 kts 197°
2026-05-06 19:09 -21.23236 -44.07908 28152 ft 392 kts 197°
2026-05-06 19:10 -21.28471 -44.09563 28153 ft 391 kts 197°
2026-05-06 19:10 -21.33694 -44.11216 28160 ft 391 kts 197°
2026-05-06 19:11 -21.38918 -44.12870 28159 ft 391 kts 197°
2026-05-06 19:11 -21.44213 -44.14096 28136 ft 392 kts 179°
2026-05-06 19:11 -21.46901 -44.13580 28167 ft 395 kts 162°
2026-05-06 19:12 -21.49394 -44.12292 28166 ft 399 kts 153°
2026-05-06 19:12 -21.54215 -44.09324 28160 ft 400 kts 152°
2026-05-06 19:13 -21.59100 -44.06506 28175 ft 398 kts 158°
2026-05-06 19:13 -21.64024 -44.04016 28171 ft 380 kts 157°
2026-05-06 19:13 -21.66378 -44.02803 28092 ft 368 kts 157°
2026-05-06 19:14 -21.68665 -44.01617 27780 ft 363 kts 156°
2026-05-06 19:14 -21.70927 -44.00443 27403 ft 360 kts 156°
2026-05-06 19:14 -21.73180 -43.99272 27035 ft 358 kts 156°
2026-05-06 19:14 -21.75419 -43.98108 26647 ft 356 kts 156°
2026-05-06 19:15 -21.77637 -43.96954 26280 ft 354 kts 156°
2026-05-06 19:15 -21.79852 -43.95801 25906 ft 352 kts 156°
2026-05-06 19:15 -21.82057 -43.94653 25532 ft 351 kts 156°
2026-05-06 19:15 -21.84244 -43.93516 25157 ft 350 kts 156°
2026-05-06 19:16 -21.86457 -43.92377 24630 ft 354 kts 156°
2026-05-06 19:16 -21.88688 -43.91227 24191 ft 356 kts 156°
2026-05-06 19:16 -21.90921 -43.90076 23726 ft 358 kts 156°
2026-05-06 19:16 -21.93184 -43.88907 23126 ft 362 kts 155°
2026-05-06 19:17 -21.95440 -43.87743 22583 ft 364 kts 155°
2026-05-06 19:17 -21.97757 -43.86547 22068 ft 365 kts 155°
2026-05-06 19:17 -22.00022 -43.85377 21544 ft 367 kts 155°
2026-05-06 19:17 -22.02362 -43.84168 21019 ft 368 kts 155°
2026-05-06 19:18 -22.04645 -43.82988 20485 ft 370 kts 155°
2026-05-06 19:18 -22.06966 -43.81788 19964 ft 372 kts 155°
2026-05-06 19:18 -22.09306 -43.80577 19437 ft 373 kts 155°
2026-05-06 19:18 -22.11687 -43.79345 18881 ft 375 kts 155°
2026-05-06 19:19 -22.14013 -43.78142 18343 ft 377 kts 155°
2026-05-06 19:19 -22.16387 -43.76912 17740 ft 378 kts 154°
2026-05-06 19:19 -22.18764 -43.75681 17184 ft 378 kts 154°
2026-05-06 19:19 -22.21141 -43.74449 16632 ft 378 kts 154°
2026-05-06 19:20 -22.23506 -43.73222 16085 ft 378 kts 154°
2026-05-06 19:20 -22.25881 -43.71991 15549 ft 378 kts 154°
2026-05-06 19:20 -22.28258 -43.70758 15007 ft 379 kts 154°
2026-05-06 19:20 -22.30629 -43.69527 14446 ft 380 kts 154°
2026-05-06 19:21 -22.33022 -43.68284 13851 ft 382 kts 154°
2026-05-06 19:21 -22.35424 -43.67037 13270 ft 382 kts 154°
2026-05-06 19:21 -22.37820 -43.65792 12738 ft 381 kts 153°
2026-05-06 19:21 -22.40171 -43.64570 12214 ft 380 kts 153°
2026-05-06 19:22 -22.42553 -43.63332 11658 ft 379 kts 153°
2026-05-06 19:22 -22.44956 -43.62082 11113 ft 378 kts 153°
2026-05-06 19:22 -22.47292 -43.60865 10565 ft 378 kts 153°
2026-05-06 19:22 -22.49668 -43.59629 9957 ft 379 kts 153°
2026-05-06 19:23 -22.52034 -43.58397 9392 ft 377 kts 153°
2026-05-06 19:23 -22.54394 -43.57167 8841 ft 375 kts 153°
2026-05-06 19:23 -22.56741 -43.55942 8266 ft 373 kts 153°
2026-05-06 19:23 -22.59079 -43.54720 7691 ft 372 kts 153°
2026-05-06 19:24 -22.61391 -43.53511 7132 ft 368 kts 153°
2026-05-06 19:24 -22.63655 -43.52251 6620 ft 359 kts 144°
2026-05-06 19:24 -22.65375 -43.50405 6106 ft 339 kts 123°
2026-05-06 19:24 -22.66687 -43.48354 5654 ft 325 kts 123°
2026-05-06 19:25 -22.67971 -43.46395 5143 ft 314 kts 124°
2026-05-06 19:25 -22.69216 -43.44507 4481 ft 310 kts 124°
2026-05-06 19:25 -22.70475 -43.42606 3633 ft 313 kts 124°
2026-05-06 19:25 -22.71760 -43.40667 2685 ft 319 kts 124°
2026-05-06 19:26 -22.73011 -43.38780 2415 ft 302 kts 124°
2026-05-06 19:26 -22.74198 -43.37009 2304 ft 280 kts 124°
2026-05-06 19:26 -22.75322 -43.35345 2002 ft 269 kts 124°
2026-05-06 19:26 -22.76395 -43.33717 1639 ft 262 kts 124°
2026-05-06 19:27 -22.77649 -43.32374 1545 ft 247 kts 147°
2026-05-06 19:27 -22.79207 -43.31837 1561 ft 234 kts 180°
2026-05-06 19:27 -22.80684 -43.32415 1523 ft 228 kts 219°
2026-05-06 19:27 -22.81450 -43.33871 1378 ft 223 kts 263°
2026-05-06 19:28 -22.81102 -43.35433 1305 ft 215 kts 307°
2026-05-06 19:28 -22.80015 -43.36383 1356 ft 189 kts 340°
2026-05-06 19:28 -22.78803 -43.36583 1267 ft 165 kts 15°
2026-05-06 19:28 -22.77869 -43.35992 1355 ft 158 kts 50°
2026-05-06 19:29 -22.77385 -43.34937 1221 ft 155 kts 78°
2026-05-06 19:29 -22.77303 -43.33767 1212 ft 155 kts 93°
2026-05-06 19:29 -22.77432 -43.32611 1104 ft 156 kts 101°
2026-05-06 19:29 -22.77777 -43.31517 1124 ft 154 kts 120°
2026-05-06 19:30 -22.78427 -43.30597 1025 ft 153 kts 128°
2026-05-06 19:30 -22.79056 -43.29685 798 ft 149 kts 126°
2026-05-06 19:30 -22.79655 -43.28772 619 ft 149 kts 127°
2026-05-06 19:30 -22.80245 -43.27879 404 ft 149 kts 125°
2026-05-06 19:31 -22.80852 -43.26953 214 ft 153 kts 125°
2026-05-06 19:31 -22.81462 -43.26033 56 ft 148 kts 126°
2026-05-06 19:31 -22.82260 -43.24835 21 ft 42 kts 126°
2026-05-06 19:32 -22.82353 -43.24599 22 ft 27 kts 102°
2026-05-06 19:32 -22.82365 -43.24485 21 ft 15 kts 88°
2026-05-06 19:32 -22.82312 -43.24402 20 ft 13 kts 36°
2026-05-06 19:32 -22.82235 -43.24343 25 ft 13 kts 36°
2026-05-06 19:33 -22.82143 -43.24300 27 ft 14 kts 346°
2026-05-06 19:33 -22.82077 -43.24378 24 ft 16 kts 305°
2026-05-06 19:33 -22.82021 -43.24462 24 ft 9 kts 304°
2026-05-06 19:33 -22.81975 -43.24533 24 ft 13 kts 304°
2026-05-06 19:34 -22.81930 -43.24580 24 ft 2 kts 24°
2026-05-06 19:34 -22.81921 -43.24559 24 ft 6 kts 81°
2026-05-06 19:34 -22.81909 -43.24501 25 ft 9 kts 77°
2026-05-06 19:34 -22.81903 -43.24476 25 ft 0 kts 76°